Simultaneous Nadir Overpasses (SNOs) Predictions

Prediction of SNOs between NOAA-19 and TERRA Satellite Orbit:

Table of predicted SNOs for the next 14.0 days since TLE Epoch: 7/16/2016
Index Date (NOAA-19) Time (NOAA-19) Lat,Lon (NOAA-19) SZA (NOAA-19 ) Date (TERRA) Time (TERRA) Lat,Lon (TERRA) SZA (TERRA ) Distance(km) Time Diff (sec)
1 07/16/2016 05:23:35 73.98, 106.41 52.70 07/16/2016 05:24:21 73.97, 106.50 52.70 3.05 46
2 07/16/2016 06:14:28 -73.87, -86.04 127.40 07/16/2016 06:13:51 -73.85, -86.13 127.43 3.39 37
3 07/18/2016 10:57:31 -73.93,-156.91 126.96 07/18/2016 10:58:06 -73.96,-156.96 126.93 3.24 35
4 07/18/2016 11:48:36 73.86, 10.48 52.99 07/18/2016 11:47:33 73.87, 10.48 52.98 0.30 63
5 07/20/2016 16:31:39 73.95, -60.44 53.48 07/20/2016 16:31:48 73.97, -60.36 53.50 3.21 9
6 07/20/2016 17:22:31 -73.80, 107.20 126.65 07/20/2016 17:21:17 -73.86, 107.02 126.62 8.22 74
7 07/22/2016 21:14:49 74.42,-132.41 54.35 07/22/2016 21:15:58 74.28,-130.73 54.26 53.01 69
8 07/22/2016 22:05:36 -73.97, 36.08 126.07 07/22/2016 22:05:32 -73.96, 36.18 126.07 3.14 4
9 07/25/2016 02:48:39 -74.03, -34.81 125.54 07/25/2016 02:49:48 -74.01, -34.78 125.56 3.25 69
10 07/25/2016 03:39:42 73.94, 132.67 54.39 07/25/2016 03:39:15 73.91, 132.65 54.35 3.29 27
11 07/27/2016 08:22:44 73.99, 61.83 54.92 07/27/2016 08:23:30 74.01, 61.79 54.94 2.32 46
12 07/27/2016 09:13:40 -73.91,-130.71 125.14 07/27/2016 09:13:00 -73.90,-130.81 125.17 3.53 40
13 07/29/2016 13:56:43 -73.99, 158.39 124.56 07/29/2016 13:57:15 -74.00, 158.33 124.55 2.07 32




NCC Satellite Simultaneous Nadir Overpasses (SNOs) Prediction Service
